DAL477 LPFR-LPMA

Flight info

Callsign DAL477
Flight time N/A
Altitude 35000
Route NARTA DCT RAKUN
Aircraft R721/M-SDFGHRWY/C

Departure

Time 2026-04-29 09:42
Airport Faro - Gago Coutinho International Airport (LPFR)

Arrival

Time N/A
Airport Cristiano Ronaldo International Airport (LPMA)
Time Latitude Longitude Altitude Speed Heading
2026-04-29 09:15 37.01681 -7.95993 22 ft 0 kts 11°
2026-04-29 09:32 37.01661 -7.95998 22 ft 2 kts 10°
2026-04-29 09:32 37.01645 -7.96002 22 ft 2 kts 10°
2026-04-29 09:33 37.01634 -7.96005 22 ft 2 kts 14°
2026-04-29 09:33 37.01622 -7.96018 24 ft 2 kts 62°
2026-04-29 09:33 37.01622 -7.96022 24 ft 0 kts 73°
2026-04-29 09:38 37.01622 -7.96021 22 ft 1 kts 74°
2026-04-29 09:38 37.01623 -7.96010 22 ft 1 kts 95°
2026-04-29 09:38 37.01614 -7.95961 22 ft 9 kts 101°
2026-04-29 09:38 37.01584 -7.95879 22 ft 12 kts 146°
2026-04-29 09:39 37.01500 -7.95846 23 ft 14 kts 163°
2026-04-29 09:39 37.01450 -7.95843 23 ft 0 kts 191°
2026-04-29 09:39 37.01444 -7.95844 24 ft 3 kts 191°
2026-04-29 09:40 37.01406 -7.95854 23 ft 7 kts 191°
2026-04-29 09:40 37.01359 -7.95875 25 ft 7 kts 232°
2026-04-29 09:40 37.01350 -7.95907 25 ft 0 kts 272°
2026-04-29 09:41 37.01350 -7.95913 25 ft 0 kts 275°
2026-04-29 09:41 37.01390 -7.96230 26 ft 75 kts 279°
2026-04-29 09:41 37.01522 -7.97148 28 ft 136 kts 278°
2026-04-29 09:42 37.01676 -7.98353 651 ft 142 kts 276°
2026-04-29 09:42 37.01875 -7.99604 1207 ft 152 kts 281°
2026-04-29 09:42 37.02189 -8.00927 1687 ft 168 kts 285°
2026-04-29 09:42 37.02528 -8.02391 2153 ft 185 kts 282°
2026-04-29 09:43 37.02822 -8.03947 2628 ft 181 kts 280°
2026-04-29 09:43 37.03009 -8.05571 2822 ft 201 kts 270°
2026-04-29 09:43 37.03065 -8.07438 2899 ft 227 kts 270°
2026-04-29 09:43 37.03007 -8.09534 2832 ft 259 kts 261°
2026-04-29 09:44 37.02568 -8.11665 3883 ft 223 kts 254°
2026-04-29 09:44 37.02250 -8.13440 4973 ft 218 kts 258°
2026-04-29 09:44 37.02082 -8.15549 4956 ft 249 kts 265°
2026-04-29 09:44 37.01993 -8.17702 4971 ft 246 kts 264°
2026-04-29 09:45 37.01749 -8.19795 4974 ft 242 kts 253°
2026-04-29 09:45 37.01226 -8.21802 4975 ft 242 kts 250°
2026-04-29 09:45 37.00760 -8.23825 5069 ft 242 kts 254°
2026-04-29 09:45 37.00373 -8.25883 5196 ft 244 kts 255°
2026-04-29 09:46 36.99978 -8.27942 5326 ft 244 kts 254°
2026-04-29 09:46 36.99561 -8.30005 5460 ft 244 kts 254°
2026-04-29 09:46 36.99146 -8.32057 5594 ft 244 kts 254°
2026-04-29 09:46 36.98733 -8.34121 5728 ft 244 kts 253°
2026-04-29 09:47 36.98312 -8.36214 5868 ft 264 kts 253°
2026-04-29 09:47 36.97861 -8.38462 7113 ft 257 kts 253°
2026-04-29 09:47 36.97433 -8.40609 8444 ft 257 kts 253°
2026-04-29 09:47 36.96985 -8.42818 9306 ft 265 kts 253°
2026-04-29 09:48 36.96533 -8.45057 10319 ft 266 kts 253°
2026-04-29 09:48 36.96080 -8.47309 11242 ft 268 kts 253°
2026-04-29 09:48 36.95622 -8.49578 12158 ft 270 kts 253°
2026-04-29 09:48 36.95160 -8.51861 13076 ft 272 kts 253°
2026-04-29 09:49 36.94693 -8.54165 13955 ft 275 kts 253°
2026-04-29 09:49 36.94222 -8.56491 14749 ft 277 kts 253°
2026-04-29 09:49 36.93749 -8.58825 15574 ft 278 kts 254°
2026-04-29 09:49 36.93275 -8.61161 16393 ft 281 kts 254°
2026-04-29 09:50 36.92772 -8.63622 16530 ft 305 kts 254°
2026-04-29 09:50 36.92244 -8.66223 17207 ft 308 kts 255°
2026-04-29 09:50 36.91720 -8.68808 18138 ft 307 kts 255°
2026-04-29 09:50 36.91187 -8.71412 18737 ft 311 kts 255°
2026-04-29 09:51 36.90649 -8.74043 19399 ft 314 kts 255°
2026-04-29 09:51 36.90108 -8.76693 20055 ft 316 kts 255°
2026-04-29 09:51 36.89561 -8.79362 20696 ft 319 kts 256°
2026-04-29 09:51 36.89009 -8.82054 21330 ft 321 kts 256°
2026-04-29 09:52 36.88453 -8.84765 21964 ft 324 kts 256°
2026-04-29 09:52 36.87890 -8.87502 22626 ft 327 kts 256°
2026-04-29 09:52 36.87321 -8.90268 23275 ft 330 kts 257°
2026-04-29 09:52 36.86747 -8.93055 23833 ft 333 kts 257°
2026-04-29 09:53 36.86174 -8.95833 24336 ft 336 kts 257°
2026-04-29 09:53 36.85588 -8.98668 24865 ft 339 kts 257°
2026-04-29 09:53 36.84989 -9.01564 25393 ft 341 kts 257°
2026-04-29 09:53 36.84393 -9.04440 25896 ft 344 kts 256°
2026-04-29 09:54 36.83792 -9.07340 26338 ft 346 kts 256°
2026-04-29 09:54 36.83185 -9.10262 26678 ft 349 kts 256°
2026-04-29 09:54 36.82571 -9.13214 27070 ft 352 kts 256°
2026-04-29 09:54 36.81954 -9.16175 27488 ft 353 kts 256°
2026-04-29 09:55 36.81345 -9.19089 28507 ft 337 kts 256°
2026-04-29 09:55 36.80755 -9.21914 29162 ft 334 kts 256°
2026-04-29 09:55 36.80170 -9.24719 29573 ft 337 kts 256°
2026-04-29 09:55 36.79575 -9.27564 29924 ft 340 kts 256°
2026-04-29 09:56 36.78975 -9.30421 30282 ft 342 kts 256°